Location: St. Louis
(38.6270°N, 90.1994°W)
Time: 11:27:48
(UTC-06:00)

S-56A Canister/Altair - Pass Details

Date: 08 December 2021
Orbit: 634 x 2499 km, 38.9° (Epoch: 26 January)

Event Time Altitude Azimuth Distance (km) Brightness Sun altitude
Rises 00:53:37 0° 269° (W) 5,234 - -69.5°
Reaches altitude 10° 00:57:33 10° 270° (W) 3,949 - -68.9°
Maximum altitude 01:07:19 88° 359° (N) 1,204 - -67.5°
Drops below altitude 10° 01:13:36 10° 91° (E) 2,613 - -66.6°
Sets 01:15:44 0° 91° (E) 3,390 - -66.2°
